Regional Weather Roundup
Issued by NWS

Home | Current Version | Previous Version | Text Only | Print | Product List | Glossary On
Versions: 1 2 3 4 5 6 7 8 9 10 11 12 13 14 15 16 17 18 19 20 21 22 23 24 25 26 27 28 29 30 31 32 33 34 35 36 37 38 39 40 41 42 43 44 45 46 47 48
000
ASCA42 TJSJ 240210
RWRPR
PUERTO RICO/U.S. VIRGIN ISLANDS HOURLY WEATHER ROUNDUP
NATIONAL WEATHER SERVICE SAN JUAN PR
1000 PM AST SAT SEP 23 2017

PRZ001>002-007>008-010-240300-
PUERTO RICO

CITY           SKY/WX    TMP DP  RH WIND       PRES   REMARKS
SAN JUAN LMM   CLEAR     84  81  89 SE5       29.95R HX  98
AGUADILLA      CLEAR     81  73  78 CALM      29.95R
$$

VIZ001>002-240300-
U.S. VIRGIN ISLANDS

CITY           SKY/WX    TMP DP  RH WIND       PRES   REMARKS
$$

HOURLY WEATHER ROUNDUP FOR THE NEWS MEDIA

CITY           SKY/WX    TMP DP  RH WIND       PRES   REMARKS
ORLANDO        PTCLDY    78  73  84 NE10      29.90R
NEW YORK       CLEAR     78  53  41 N8        30.04R
NEWARK         CLEAR     80  52  37 N7        30.03S
CHICAGO        CLEAR     83  65  54 E8        30.04S
HARTFORD       FOG       63  63 100 CALM      30.03R VSB 1/2
BOSTON         FOG       60  60 100 S3        30.04S VSB 1/4
DALLAS         CLEAR     86  64  47 SE12      29.87R
PHILADELPHIA   CLEAR     77  59  53 CALM      30.05S
LOS ANGELES    PTCLDY    65  58  78 W12       29.84S
WASHINGTON DC  CLEAR     66  63  90 CALM      30.09R


USA.gov is the U.S. government's official web portal to all federal, state and local government web resources and services.